Starlink 11493

operational
NORAD ID: 62410 Int'l Des: 2024-249 Owner: SPXS Country: US Constellation: starlink
LEOCIRCULAR

About Starlink 11493

Description loading...

Live Position

Loading 3D Globe...

Upcoming Passes

Altitude History

Altitude vs Time

uPlot chart will show altitude changes over time

Two-Line Element Set

1 62410U 24249B 25258.05616878 .00053254 00000-0 41593-3 0 9991
2 62410 42.9973 146.7110 0001056 273.5888 86.4859 15.70835766 41858
Epoch: Sep 15, 2025 • Age: 15 hours

Current Status

Altitude 367.8 km
Velocity 7.69 km/s
Sub-Earth Point -40.31°S, 161.32°W
Launch Date Dec 23, 2024
Age 0.7 years
Type internet

Technical Details

Classification Payload
Mass 960.00 kg
Dry Mass 910.00 kg
Total Mass 960.00 kg
Length 0.30 m
Diameter 4.10 m
Span 29.00 m
Shape Box + pan
Manufacturer SPXS
Bus Type Starlink V2MD
Phase Status In Orbit
Owner/State SPXS/US

Large Constellations

Loading constellations...